• în România
  • Lista ţărilor
  • Pe 7 zile
  • Temperatura apei
  • Hartă satelitară
  • Meteo pe hartă
  • Widget-uri
  • user-avatar
    Intrare

    Meteo pe oră la Arakaka

    Astăzi, 22 Mai, Marţi

    Timp Temperatura Precipitaţii Vânt Presiune Umiditate
    00:00 +24°C° 0 mm 1 m/s 754 mmHg 96%
    01:00 +22°C° 0 mm 0 m/s 753 mmHg 97%
    02:00 +22°C° 0 mm 0 m/s 753 mmHg 99%
    03:00 +22°C° 0,1 mm 0 m/s 753 mmHg 98%
    04:00 +22°C° 0,1 mm 0 m/s 753 mmHg 98%
    05:00 +22°C° 0,1 mm 0 m/s 753 mmHg 97%
    06:00 +25°C° 0,1 mm 1 m/s 754 mmHg 93%
    07:00 +26°C° 0,1 mm 1 m/s 754 mmHg 89%
    08:00 +27°C° 0,1 mm 1 m/s 755 mmHg 85%
    09:00 +29°C° 0,1 mm 1 m/s 755 mmHg 75%
    10:00 +31°C° 0,1 mm 2 m/s 755 mmHg 64%
    11:00 +34°C° 0,1 mm 2 m/s 755 mmHg 54%
    12:00 +32°C° 1 mm 2 m/s 754 mmHg 63%
    13:00 +31°C° 1 mm 2 m/s 753 mmHg 72%
    14:00 +30°C° 1 mm 2 m/s 753 mmHg 80%
    15:00 +30°C° 0,9 mm 1 m/s 752 mmHg 83%
    16:00 +29°C° 0,9 mm 1 m/s 752 mmHg 86%
    17:00 +29°C° 0,9 mm 1 m/s 752 mmHg 88%
    18:00 +28°C° 0,1 mm 1 m/s 752 mmHg 91%
    19:00 +27°C° 0,1 mm 1 m/s 753 mmHg 93%
    20:00 +25°C° 0,1 mm 1 m/s 753 mmHg 96%
    21:00 +25°C° 0 mm 1 m/s 754 mmHg 97%
    22:00 +25°C° 0 mm 1 m/s 754 mmHg 98%
    23:00 +24°C° 0 mm 1 m/s 755 mmHg 99%

    Mâine, 23 Mai, Miercuri

    Timp Temperatura Precipitaţii Vânt Presiune Umiditate
    00:00 +22°C° 0,1 mm 0 m/s 754 mmHg 99%
    01:00 +22°C° 0,1 mm 0 m/s 754 mmHg 99%
    02:00 +22°C° 0,1 mm 0 m/s 753 mmHg 99%
    03:00 +22°C° 0,2 mm 0 m/s 754 mmHg 99%
    04:00 +22°C° 0,2 mm 0 m/s 754 mmHg 99%
    05:00 +22°C° 0,2 mm 0 m/s 754 mmHg 99%
    06:00 +25°C° 0,1 mm 1 m/s 754 mmHg 95%
    07:00 +26°C° 0,1 mm 1 m/s 755 mmHg 92%
    08:00 +27°C° 0,1 mm 2 m/s 755 mmHg 89%
    09:00 +29°C° 0,2 mm 2 m/s 755 mmHg 79%
    10:00 +31°C° 0,2 mm 2 m/s 755 mmHg 69%
    11:00 +34°C° 0,2 mm 2 m/s 755 mmHg 58%
    12:00 +32°C° 0,7 mm 2 m/s 754 mmHg 63%
    13:00 +32°C° 0,7 mm 2 m/s 754 mmHg 67%
    14:00 +31°C° 0,7 mm 2 m/s 753 mmHg 72%
    15:00 +31°C° 0,9 mm 1 m/s 753 mmHg 77%
    16:00 +30°C° 0,9 mm 1 m/s 753 mmHg 82%
    17:00 +29°C° 0,9 mm 1 m/s 753 mmHg 87%
    18:00 +28°C° 0,2 mm 1 m/s 753 mmHg 90%
    19:00 +27°C° 0,2 mm 1 m/s 754 mmHg 93%
    20:00 +25°C° 0,2 mm 1 m/s 754 mmHg 95%
    21:00 +25°C° 0 mm 1 m/s 755 mmHg 96%
    22:00 +25°C° 0 mm 1 m/s 755 mmHg 97%
    23:00 +23°C° 0 mm 0 m/s 755 mmHg 98%

    Poimâine, 24 Mai, Joi

    Timp Temperatura Precipitaţii Vânt Presiune Umiditate
    00:00 +22°C° 0 mm 0 m/s 755 mmHg 98%
    01:00 +22°C° 0 mm 0 m/s 754 mmHg 99%
    02:00 +22°C° 0 mm 0 m/s 754 mmHg 99%
    03:00 +22°C° 0,1 mm 0 m/s 754 mmHg 99%
    04:00 +22°C° 0,1 mm 0 m/s 754 mmHg 99%
    05:00 +22°C° 0,1 mm 0 m/s 754 mmHg 99%
    06:00 +23°C° 0,2 mm 0 m/s 754 mmHg 96%
    07:00 +24°C° 0,2 mm 0 m/s 755 mmHg 94%
    08:00 +27°C° 0,2 mm 1 m/s 755 mmHg 91%
    09:00 +28°C° 0,5 mm 1 m/s 755 mmHg 86%
    10:00 +29°C° 0,5 mm 1 m/s 755 mmHg 82%
    11:00 +31°C° 0,5 mm 2 m/s 755 mmHg 77%
    12:00 +30°C° 1,3 mm 2 m/s 755 mmHg 80%
    13:00 +30°C° 1,3 mm 1 m/s 754 mmHg 82%
    14:00 +30°C° 1,3 mm 1 m/s 753 mmHg 85%
    15:00 +30°C° 0,9 mm 1 m/s 753 mmHg 87%
    16:00 +29°C° 0,9 mm 1 m/s 753 mmHg 89%
    17:00 +29°C° 0,9 mm 1 m/s 752 mmHg 91%
    18:00 +28°C° 0,3 mm 1 m/s 753 mmHg 93%
    19:00 +26°C° 0,3 mm 1 m/s 754 mmHg 96%
    20:00 +25°C° 0,3 mm 1 m/s 754 mmHg 98%
    21:00 +25°C° 0 mm 1 m/s 754 mmHg 98%
    22:00 +23°C° 0 mm 0 m/s 755 mmHg 98%
    23:00 +23°C° 0 mm 0 m/s 755 mmHg 99%

    25 Mai, Vineri

    Timp Temperatura Precipitaţii Vânt Presiune Umiditate
    00:00 +23°C° 0 mm 0 m/s 754 mmHg 99%
    01:00 +22°C° 0 mm 0 m/s 754 mmHg 99%
    02:00 +22°C° 0 mm 0 m/s 753 mmHg 99%
    03:00 +22°C° 0 mm 0 m/s 754 mmHg 99%
    04:00 +22°C° 0 mm 0 m/s 754 mmHg 99%
    05:00 +22°C° 0 mm 0 m/s 754 mmHg 99%
    06:00 +23°C° 0 mm 0 m/s 754 mmHg 96%
    07:00 +24°C° 0 mm 0 m/s 755 mmHg 93%
    08:00 +25°C° 0 mm 0 m/s 755 mmHg 90%
    09:00 +29°C° 0,2 mm 1 m/s 755 mmHg 81%
    10:00 +31°C° 0,2 mm 1 m/s 755 mmHg 72%
    11:00 +32°C° 0,2 mm 1 m/s 754 mmHg 64%
    12:00 +32°C° 0,8 mm 1 m/s 754 mmHg 70%
    13:00 +31°C° 0,8 mm 1 m/s 753 mmHg 76%
    14:00 +31°C° 0,8 mm 2 m/s 752 mmHg 82%
    15:00 +30°C° 0,8 mm 1 m/s 752 mmHg 85%
    16:00 +29°C° 0,8 mm 1 m/s 752 mmHg 88%
    17:00 +29°C° 0,8 mm 1 m/s 752 mmHg 91%
    18:00 +28°C° 0,6 mm 1 m/s 752 mmHg 93%
    19:00 +27°C° 0,6 mm 1 m/s 753 mmHg 96%
    20:00 +25°C° 0,6 mm 1 m/s 753 mmHg 98%
    21:00 +25°C° 0 mm 1 m/s 754 mmHg 98%
    22:00 +23°C° 0 mm 0 m/s 754 mmHg 98%
    23:00 +23°C° 0 mm 0 m/s 754 mmHg 99%

    26 Mai, Sâmbătă

    Timp Temperatura Precipitaţii Vânt Presiune Umiditate
    00:00 +23°C° 0 mm 0 m/s 753 mmHg 99%
    01:00 +22°C° 0 mm 0 m/s 753 mmHg 99%
    02:00 +22°C° 0 mm 0 m/s 752 mmHg 99%
    03:00 +22°C° 0,1 mm 0 m/s 752 mmHg 99%
    04:00 +22°C° 0,1 mm 0 m/s 753 mmHg 99%
    05:00 +22°C° 0,1 mm 0 m/s 753 mmHg 99%
    06:00 +23°C° 0,1 mm 0 m/s 753 mmHg 97%
    07:00 +24°C° 0,1 mm 0 m/s 754 mmHg 95%
    08:00 +27°C° 0,1 mm 1 m/s 754 mmHg 93%
    09:00 +28°C° 0,4 mm 1 m/s 754 mmHg 87%
    10:00 +29°C° 0,4 mm 1 m/s 754 mmHg 80%
    11:00 +31°C° 0,4 mm 2 m/s 753 mmHg 74%
    12:00 +30°C° 0,8 mm 2 m/s 753 mmHg 78%
    13:00 +30°C° 0,8 mm 2 m/s 752 mmHg 82%
    14:00 +29°C° 0,8 mm 2 m/s 752 mmHg 86%
    15:00 +29°C° 0,8 mm 2 m/s 751 mmHg 89%
    16:00 +28°C° 0,8 mm 1 m/s 751 mmHg 92%
    17:00 +28°C° 0,8 mm 1 m/s 751 mmHg 94%
    18:00 +27°C° 0,4 mm 1 m/s 752 mmHg 95%
    19:00 +26°C° 0,4 mm 1 m/s 752 mmHg 97%
    20:00 +25°C° 0,4 mm 1 m/s 753 mmHg 98%
    21:00 +25°C° 0 mm 1 m/s 753 mmHg 98%
    22:00 +25°C° 0 mm 1 m/s 753 mmHg 99%
    23:00 +23°C° 0 mm 0 m/s 753 mmHg 99%

    27 Mai, Duminică

    Timp Temperatura Precipitaţii Vânt Presiune Umiditate
    00:00 +23°C° 0 mm 0 m/s 753 mmHg 99%
    01:00 +22°C° 0 mm 0 m/s 753 mmHg 99%
    02:00 +22°C° 0 mm 0 m/s 752 mmHg 99%
    03:00 +22°C° 0 mm 0 m/s 752 mmHg 99%
    04:00 +22°C° 0 mm 0 m/s 753 mmHg 99%
    05:00 +22°C° 0 mm 0 m/s 753 mmHg 99%
    06:00 +25°C° 0 mm 1 m/s 753 mmHg 96%
    07:00 +26°C° 0 mm 1 m/s 754 mmHg 93%
    08:00 +27°C° 0 mm 1 m/s 754 mmHg 90%
    09:00 +29°C° 0,1 mm 2 m/s 754 mmHg 79%
    10:00 +31°C° 0,1 mm 2 m/s 754 mmHg 68%
    11:00 +34°C° 0,1 mm 2 m/s 754 mmHg 57%
    12:00 +32°C° 0,6 mm 2 m/s 753 mmHg 62%
    13:00 +32°C° 0,6 mm 2 m/s 753 mmHg 67%
    14:00 +32°C° 0,6 mm 2 m/s 752 mmHg 73%
    15:00 +31°C° 0,8 mm 2 m/s 752 mmHg 78%
    16:00 +30°C° 0,8 mm 1 m/s 752 mmHg 83%
    17:00 +29°C° 0,8 mm 1 m/s 752 mmHg 89%
    18:00 +27°C° 0,1 mm 1 m/s 752 mmHg 91%
    19:00 +26°C° 0,1 mm 1 m/s 753 mmHg 94%
    20:00 +25°C° 0,1 mm 1 m/s 754 mmHg 97%
    21:00 +25°C° 0 mm 1 m/s 754 mmHg 97%
    22:00 +25°C° 0 mm 1 m/s 754 mmHg 98%
    23:00 +22°C° 0 mm 0 m/s 754 mmHg 99%
    Arată mai mult